GW5068 Weather Reports


time (UTC)temp
F
wind
direction
speed
knots
gust
knots
rain 1hr
in
rain 24hr
in
rain mn
in
humidity
%
barometer
mb
20260507223007 60 176 0.9 9.6 0.00 0.62 0.60 30 1014.2
20260507221524 60 183 0.9 6.1 0.00 0.62 0.60 31 1014.6
20260507220029 62 116 0.0 9.6 0.00 0.62 0.60 31 1014.9
20260507214556 64 94 0.0 9.6 0.00 0.62 0.60 33 1015.1
20260507213053 63 218 1.7 7.0 0.00 0.62 0.60 34 1015.2
20260507211555 63 187 1.7 8.7 0.00 0.62 0.60 32 1015.4
20260507210047 62 108 3.5 7.8 0.00 0.62 0.60 39 1015.5
20260507204511 60 43 0.9 6.1 0.00 0.62 0.60 36 1016.0
20260507203038 60 38 0.9 5.2 0.00 0.62 0.60 41 1016.6
20260507201551 59 32 1.7 5.2 0.00 0.62 0.60 37 1017.2
20260507200022 57 112 0.0 4.3 0.00 0.62 0.60 40 1017.4
20260507194548 58 91 0.0 3.5 0.00 0.62 0.60 43 1017.5
20260507193015 57 164 0.9 3.5 0.01 0.62 0.60 41 1017.7
20260507191508 57 152 0.9 3.5 0.01 0.62 0.60 38 1018.0
20260507190022 56 99 0.0 4.3 0.02 0.62 0.60 40 1018.5
20260507184552 58 94 0.0 7.8 0.02 0.62 0.60 41 1018.7
20260507183053 56 110 0.9 8.7 0.02 0.61 0.59 37 1019.1
20260507181516 56 48 0.0 3.5 0.04 0.61 0.59 40 1019.2
20260507180046 56 156 0.0 1.7 0.04 0.60 0.57 40 1019.2
20260507174552 56 165 0.0 3.5 0.06 0.59 0.56 40 1019.3
20260507173016 56 186 0.0 2.6 0.10 0.59 0.56 41 1019.9
20260507171527 57 151 1.7 4.3 0.11 0.56 0.55 39 1020.3
20260507170051 56 207 0.0 3.5 0.15 0.56 0.54 44 1020.6
20260507164501 55 170 1.7 4.3 0.25 0.53 0.51 46 1020.8
20260507163024 53 78 0.0 2.6 0.28 0.49 0.47 51 1021.3
20260507161524 52 151 0.9 3.5 0.41 0.45 0.43 55 1021.6
20260507160021 52 134 0.9 3.5 0.37 0.40 0.38 49 1021.9
20260507154602 50 95 0.9 5.2 0.26 0.28 0.26 53 1022.0
20260507153034 48 163 2.6 5.2 0.18 0.20 0.18 55 1022.2
20260507151554 46 144 1.7 6.1 0.02 0.04 0.02 57 1022.3
20260507150109 45 148 1.7 7.0 0.01 0.03 0.01 59 1022.6
20260507144514 45 173 1.7 5.2 0.00 0.02 0.00 59 1022.4
20260507143036 44 175 0.9 5.2 0.00 0.02 0.00 59 1022.6
20260507141541 43 179 0.9 4.3 0.00 0.02 0.00 59 1022.6
20260507140106 42 175 1.7 6.1 0.00 0.02 0.00 60 1022.6
20260507134507 41 155 1.7 8.7 0.00 0.02 0.00 59 1022.5
20260507133101 40 175 1.7 7.0 0.00 0.02 0.00 58 1022.7
20260507131521 37 157 1.7 6.1 0.00 0.02 0.00 65 1022.6
20260507130029 36 193 1.7 4.3 0.00 0.02 0.00 66 1022.5
20260507124532 34 185 2.6 7.0 0.00 0.02 0.00 69 1022.3
20260507123038 32 307 2.6 8.7 0.00 0.02 0.00 72 1022.2
20260507121542 31 322 1.7 7.8 0.00 0.02 0.00 74 1022.0
20260507120047 31 171 0.9 4.3 0.00 0.02 0.00 75 1022.1
20260507114511 31 151 0.0 5.2 0.00 0.02 0.00 75 1022.2
20260507113052 31 171 1.7 8.7 0.00 0.02 0.00 75 1022.4
20260507111511 30 233 0.9 3.5 0.00 0.02 0.00 76 1022.6
20260507110033 29 170 0.9 4.3 0.00 0.02 0.00 78 1022.7
20260507104603 29 152 0.0 0.9 0.00 0.02 0.00 78 1022.6
20260507103017 30 143 0.9 3.5 0.00 0.02 0.00 76 1022.6
20260507101548 30 158 0.0 4.3 0.00 0.02 0.00 76 1022.8
20260507100016 29 122 0.0 1.7 0.00 0.02 0.00 78 1022.8
20260507094523 28 102 0.0 2.6 0.00 0.02 0.00 82 1022.8
20260507093038 28 152 0.0 4.3 0.00 0.02 0.00 80 1022.7
20260507091534 28 150 0.0 1.7 0.00 0.02 0.00 82 1023.0
20260507090033 28 113 0.0 3.5 0.00 0.02 0.00 83 1023.2
20260507084541 28 191 0.0 3.5 0.00 0.02 0.00 84 1023.2
20260507083043 28 63 0.9 3.5 0.00 0.02 0.00 84 1023.0
20260507081510 27 155 0.0 1.7 0.00 0.02 0.00 86 1023.2
20260507080021 26 157 0.0 2.6 0.00 0.02 0.00 89 1023.3
20260507074555 25 34 0.9 3.5 0.00 0.02 0.00 90 1023.3
20260507073002 25 39 0.0 0.9 0.00 0.02 0.00 93 1023.5
20260507071522 25 29 0.0 0.9 0.00 0.02 0.00 93 1023.5
20260507070010 25 21 0.0 1.7 0.00 0.02 0.00 95 1023.5
20260507064509 24 167 0.0 0.9 0.00 0.02 0.00 95 1023.4
20260507063027 25 167 0.0 0.0 0.00 0.02 0.00 95 1023.7
20260507061512 26 167 0.0 0.0 0.00 0.02 0.00 95 1023.5
20260507060026 26 167 0.0 0.9 0.00 0.02 0.02 96 1023.4
20260507054612 26 238 0.0 0.0 0.00 0.02 0.02 96 1023.3
20260507053022 25 238 0.0 0.9 0.00 0.02 0.02 95 1023.4
20260507051547 25 238 0.0 0.0 0.00 0.02 0.02 95 1023.4
20260507050058 25 238 0.0 0.0 0.00 0.02 0.02 94 1023.1
20260507044553 26 238 0.0 0.9 0.00 0.02 0.02 95 1023.2
20260507043032 26 238 0.0 0.0 0.00 0.02 0.02 94 1023.2
20260507041504 26 169 0.0 0.9 0.00 0.02 0.02 94 1023.1
20260507040042 27 233 0.0 0.9 0.00 0.02 0.02 93 1023.2
20260507034510 27 233 0.0 1.7 0.00 0.02 0.02 94 1023.2
20260507033047 27 234 0.0 0.9 0.00 0.02 0.02 94 1023.1
20260507031504 27 233 0.0 0.9 0.00 0.02 0.02 94 1023.0
20260507030033 27 233 0.0 0.9 0.00 0.02 0.02 93 1022.8
20260507024556 28 219 0.0 0.9 0.00 0.02 0.02 93 1022.7
20260507023050 28 219 0.0 1.7 0.00 0.02 0.02 93 1022.6
20260507021513 28 224 0.9 1.7 0.00 0.02 0.02 93 1022.5
20260507020107 29 221 0.0 1.7 0.00 0.02 0.02 92 1022.2
20260507014507 29 214 0.0 1.7 0.00 0.02 0.02 91 1022.2
20260507013022 30 221 0.9 2.6 0.00 0.02 0.02 91 1022.3
20260507011554 30 226 0.0 1.7 0.01 0.02 0.02 91 1022.2
20260507010031 30 238 0.0 2.6 0.01 0.02 0.02 90 1022.1
20260507004548 30 230 0.9 2.6 0.01 0.02 0.02 90 1022.0
20260507003022 30 214 0.0 2.6 0.01 0.02 0.02 89 1021.9
20260507001608 31 221 0.0 1.7 0.00 0.01 0.01 89 1021.9
20260507000057 31 171 0.0 1.7 0.00 0.01 0.01 88 1022.1
20260506234522 31 176 0.0 1.7 0.00 0.01 0.01 87 1021.9
20260506233016 32 221 0.9 3.5 0.01 0.01 0.01 85 1021.9
20260506231535 32 212 0.0 1.7 0.01 0.01 0.01 84 1022.0
20260506230029 33 176 0.0 1.7 0.01 0.01 0.01 83 1021.9
20260506224556 32 169 0.0 1.7 0.01 0.01 0.01 83 1021.9